STARLINK-4489 (53542 NORAD) Tracking and Keplerian Element Data

This shows tracking and keplerian element data for the satellite.

Feedback or suggestion? Click here.




ElementValue
Catalog53542
NameSTARLINK-4489
Epoch Orbit1506
Epoch Day324.59019137
Epoch Year2022
RAAN74.0194
Inclination53.2179
Eccentricity0.0001459
Argument of Perigee52.6083
Mean Anonmoly307.5042
Mean Motion15.08834941
Decay Rate6.42E-06
L11 53542U 22101R 22324.59019137 .00000642 00000+0 58402-4 0 9997
L22 53542 53.2179 74.0194 0001459 52.6083 307.5042 15.08834941 15062



Live tracking and technical data element details for STARLINK-4489 (NORAD 53542). STARLINK-4489 can be tracked NOW for your location showing map with azimuth and elevation plus other details from your city location.







IsCatalogInMostPopularTable: catalog: 53542, numindb: 1
Update: records affected: 1



GetName: 53542 STARLINK-4489

Hit Count: updated at: Thu, 08 Dec 2022 20:22:51 GMT